DAL64D KLAX-LPPT

Flight info

Callsign DAL64D
Flight time N/A
Altitude 41000
Route OSHNN1 BEALE DCT EEVUN Q70 SAKES J100 EKR J84 SNY J114 ONL Q122 KATES DCT DBQ DCT SVM J70 JISTR/N0490F390 J70 JHW DCT HNK DCT HFD DCT ACK DCT SAILE DCT DOVEY/M084F390 DCT 41N060W 41N050W 43N040W/M084F410 42N030W 41N020W DCT ERPES/N0484F410 DCT LAZET LAZET2A
Aircraft A359/H-VGDW/C

Departure

Time 2026-05-06 23:42
Airport Los Angeles International Airport (KLAX)

Arrival

Time N/A
Airport Lisbon Humberto Delgado Airport (LPPT)
Time Latitude Longitude Altitude Speed Heading
2026-05-06 22:27 33.93941 -118.41078 132 ft 0 kts 83°
2026-05-06 23:24 33.93942 -118.41061 128 ft 4 kts 83°
2026-05-06 23:25 33.93944 -118.41044 132 ft 0 kts 83°
2026-05-06 23:26 33.93943 -118.41044 132 ft 0 kts 83°
2026-05-06 23:29 33.93942 -118.41044 132 ft 0 kts 83°
2026-05-06 23:31 33.93941 -118.41054 128 ft 4 kts 85°
2026-05-06 23:31 33.93940 -118.41087 127 ft 4 kts 87°
2026-05-06 23:31 33.93937 -118.41119 132 ft 4 kts 82°
2026-05-06 23:31 33.93934 -118.41151 132 ft 4 kts 94°
2026-05-06 23:32 33.93943 -118.41173 126 ft 4 kts 162°
2026-05-06 23:32 33.93968 -118.41178 129 ft 3 kts 174°
2026-05-06 23:32 33.93954 -118.41176 129 ft 5 kts 173°
2026-05-06 23:32 33.93944 -118.41174 127 ft 0 kts 173°
2026-05-06 23:35 33.93931 -118.41172 132 ft 6 kts 173°
2026-05-06 23:36 33.93883 -118.41165 127 ft 7 kts 173°
2026-05-06 23:36 33.93801 -118.41154 128 ft 13 kts 165°
2026-05-06 23:36 33.93772 -118.41098 129 ft 11 kts 101°
2026-05-06 23:36 33.93782 -118.40943 127 ft 22 kts 83°
2026-05-06 23:37 33.93801 -118.40757 125 ft 23 kts 83°
2026-05-06 23:37 33.93820 -118.40559 128 ft 24 kts 83°
2026-05-06 23:37 33.93841 -118.40354 132 ft 25 kts 83°
2026-05-06 23:37 33.93862 -118.40139 125 ft 26 kts 83°
2026-05-06 23:38 33.93881 -118.39967 132 ft 19 kts 83°
2026-05-06 23:38 33.93897 -118.39804 124 ft 21 kts 83°
2026-05-06 23:38 33.93916 -118.39624 132 ft 22 kts 83°
2026-05-06 23:38 33.93935 -118.39437 128 ft 22 kts 83°
2026-05-06 23:39 33.93954 -118.39250 123 ft 23 kts 83°
2026-05-06 23:39 33.93974 -118.39057 132 ft 24 kts 82°
2026-05-06 23:39 33.93996 -118.38849 132 ft 25 kts 83°
2026-05-06 23:39 33.94014 -118.38678 124 ft 20 kts 83°
2026-05-06 23:40 33.94032 -118.38501 129 ft 22 kts 83°
2026-05-06 23:40 33.94051 -118.38312 127 ft 24 kts 83°
2026-05-06 23:40 33.94063 -118.38202 132 ft 0 kts 83°
2026-05-06 23:40 33.94068 -118.38149 132 ft 14 kts 83°
2026-05-06 23:41 33.94069 -118.38038 126 ft 13 kts 108°
2026-05-06 23:41 33.94026 -118.38007 128 ft 6 kts 169°
2026-05-06 23:41 33.94000 -118.38020 132 ft 3 kts 221°
2026-05-06 23:41 33.93980 -118.38099 128 ft 21 kts 261°
2026-05-06 23:42 33.93937 -118.38504 124 ft 79 kts 263°
2026-05-06 23:42 33.93849 -118.39379 132 ft 130 kts 263°
2026-05-06 23:42 33.93715 -118.40629 331 ft 157 kts 262°
2026-05-06 23:42 33.93572 -118.41902 943 ft 157 kts 261°
2026-05-06 23:43 33.93398 -118.43200 1538 ft 159 kts 259°
2026-05-06 23:43 33.93173 -118.44577 1894 ft 171 kts 258°
2026-05-06 23:43 33.92898 -118.45989 2249 ft 178 kts 257°
2026-05-06 23:43 33.92433 -118.47424 2475 ft 194 kts 237°
2026-05-06 23:44 33.91524 -118.48747 2636 ft 215 kts 229°
2026-05-06 23:44 33.90500 -118.50130 2875 ft 232 kts 230°
2026-05-06 23:44 33.89383 -118.51632 3109 ft 249 kts 229°
2026-05-06 23:44 33.88211 -118.53230 3608 ft 258 kts 230°
2026-05-06 23:45 33.86958 -118.54817 4148 ft 265 kts 221°
2026-05-06 23:45 33.85318 -118.55855 4668 ft 274 kts 194°
2026-05-06 23:45 33.84056 -118.55980 5045 ft 277 kts 175°
2026-05-06 23:45 33.81863 -118.55468 5751 ft 280 kts 165°
2026-05-06 23:46 33.79948 -118.54903 6422 ft 283 kts 165°
2026-05-06 23:46 33.78024 -118.54358 7053 ft 287 kts 165°
2026-05-06 23:46 33.76046 -118.53810 7700 ft 291 kts 165°
2026-05-06 23:46 33.74075 -118.53270 8398 ft 294 kts 165°
2026-05-06 23:47 33.72079 -118.52697 9100 ft 296 kts 161°
2026-05-06 23:47 33.70257 -118.51613 9748 ft 293 kts 137°
2026-05-06 23:47 33.68993 -118.49718 10304 ft 293 kts 112°
2026-05-06 23:47 33.68236 -118.47410 10604 ft 306 kts 105°
2026-05-06 23:48 33.67542 -118.44905 10883 ft 322 kts 105°
2026-05-06 23:48 33.66809 -118.42320 11176 ft 338 kts 106°
2026-05-06 23:48 33.66011 -118.39574 11454 ft 353 kts 107°
2026-05-06 23:48 33.65185 -118.36764 11714 ft 367 kts 107°
2026-05-06 23:49 33.64522 -118.33759 12062 ft 373 kts 94°
2026-05-06 23:49 33.64413 -118.30659 12576 ft 375 kts 88°
2026-05-06 23:49 33.64432 -118.27522 13083 ft 379 kts 87°
2026-05-06 23:49 33.64534 -118.24324 13610 ft 382 kts 82°
2026-05-06 23:50 33.65045 -118.21193 14072 ft 383 kts 71°
2026-05-06 23:50 33.67597 -118.15614 15026 ft 385 kts 49°
2026-05-06 23:50 33.69521 -118.13398 15506 ft 387 kts 38°
2026-05-06 23:51 33.71663 -118.11456 15983 ft 389 kts 36°
2026-05-06 23:51 33.73849 -118.09529 16505 ft 391 kts 36°
2026-05-06 23:51 33.76069 -118.07557 17026 ft 394 kts 36°
2026-05-06 23:51 33.78268 -118.05594 17565 ft 397 kts 36°
2026-05-06 23:52 33.80478 -118.03615 18103 ft 399 kts 36°
2026-05-06 23:52 33.82724 -118.01600 18581 ft 402 kts 36°
2026-05-06 23:52 33.84958 -117.99592 19055 ft 404 kts 36°
2026-05-06 23:52 33.87232 -117.97547 19518 ft 406 kts 37°
2026-05-06 23:53 33.89493 -117.95512 19997 ft 409 kts 37°
2026-05-06 23:53 33.91773 -117.93462 20468 ft 411 kts 36°
2026-05-06 23:53 33.94067 -117.91376 20932 ft 414 kts 37°
2026-05-06 23:53 33.96362 -117.89273 21396 ft 416 kts 37°
2026-05-06 23:54 33.98660 -117.87173 21925 ft 418 kts 37°
2026-05-06 23:54 34.00998 -117.85025 22428 ft 421 kts 37°
2026-05-06 23:54 34.03330 -117.82884 22895 ft 424 kts 37°
2026-05-06 23:54 34.05690 -117.80720 23379 ft 426 kts 37°
2026-05-06 23:55 34.08008 -117.78526 23811 ft 429 kts 40°
2026-05-06 23:55 34.10140 -117.75971 24218 ft 432 kts 48°
2026-05-06 23:55 34.12055 -117.73184 24629 ft 435 kts 50°
2026-05-06 23:55 34.13979 -117.70314 25046 ft 437 kts 50°
2026-05-06 23:56 34.15884 -117.67477 25469 ft 438 kts 50°
2026-05-06 23:56 34.17822 -117.64593 25862 ft 441 kts 50°
2026-05-06 23:56 34.19749 -117.61726 26299 ft 443 kts 50°
2026-05-06 23:56 34.21692 -117.58835 26699 ft 445 kts 50°
2026-05-06 23:57 34.23662 -117.55904 27076 ft 447 kts 50°
2026-05-06 23:57 34.25601 -117.53016 27535 ft 449 kts 50°
2026-05-06 23:57 34.27591 -117.50049 27918 ft 451 kts 50°
2026-05-06 23:57 34.29563 -117.47108 28312 ft 452 kts 50°
2026-05-06 23:58 34.31540 -117.44166 28690 ft 454 kts 50°
2026-05-06 23:58 34.33542 -117.41175 29079 ft 456 kts 50°
2026-05-06 23:58 34.35530 -117.38197 29419 ft 458 kts 50°
2026-05-06 23:58 34.37533 -117.35196 29737 ft 460 kts 50°
2026-05-06 23:59 34.39553 -117.32168 30123 ft 460 kts 50°
2026-05-06 23:59 34.41543 -117.29182 30535 ft 459 kts 50°
2026-05-06 23:59 34.43548 -117.26173 30933 ft 457 kts 50°
2026-05-06 23:59 34.45558 -117.23154 31325 ft 456 kts 50°
2026-05-07 00:00 34.47510 -117.20218 31710 ft 454 kts 50°
2026-05-07 00:00 34.49511 -117.17208 32071 ft 453 kts 50°
2026-05-07 00:00 34.51472 -117.14255 32419 ft 452 kts 50°
2026-05-07 00:00 34.52787 -117.12275 32658 ft 451 kts 50°
2026-05-07 00:01 34.55408 -117.08338 33144 ft 448 kts 49°
2026-05-07 00:01 34.57381 -117.05469 33476 ft 447 kts 49°
2026-05-07 00:01 34.59396 -117.02556 33780 ft 446 kts 49°
2026-05-07 00:01 34.61378 -116.99681 34087 ft 445 kts 49°
2026-05-07 00:02 34.62688 -116.97776 34291 ft 443 kts 49°
2026-05-07 00:02 34.65316 -116.93948 34612 ft 443 kts 49°
2026-05-07 00:02 34.66653 -116.91997 34750 ft 443 kts 49°
2026-05-07 00:02 34.69257 -116.88193 35067 ft 442 kts 49°
2026-05-07 00:03 34.70586 -116.86250 35243 ft 441 kts 49°
2026-05-07 00:03 34.72532 -116.83402 35475 ft 441 kts 49°
2026-05-07 00:03 34.74486 -116.80540 35682 ft 441 kts 49°
2026-05-07 00:03 34.76428 -116.77693 35858 ft 441 kts 49°
2026-05-07 00:04 34.78384 -116.74823 36110 ft 439 kts 49°
2026-05-07 00:04 34.80348 -116.71938 36323 ft 439 kts 49°
2026-05-07 00:04 34.82303 -116.69066 36523 ft 439 kts 49°
2026-05-07 00:04 34.84236 -116.66222 36715 ft 438 kts 49°
2026-05-07 00:05 34.86177 -116.63376 36858 ft 439 kts 49°
2026-05-07 00:05 34.88197 -116.60633 37035 ft 438 kts 46°
2026-05-07 00:05 34.90281 -116.57907 37205 ft 438 kts 46°
2026-05-07 00:05 34.92357 -116.55171 37374 ft 437 kts 46°
2026-05-07 00:06 34.94398 -116.52464 37542 ft 437 kts 46°
2026-05-07 00:06 34.96448 -116.49732 37679 ft 437 kts 46°
2026-05-07 00:06 34.98496 -116.46995 37843 ft 436 kts 46°
2026-05-07 00:06 35.00532 -116.44270 37996 ft 436 kts 46°
2026-05-07 00:07 35.02572 -116.41535 38155 ft 436 kts 46°
2026-05-07 00:07 35.04614 -116.38795 38311 ft 435 kts 46°
2026-05-07 00:07 35.06660 -116.36046 38424 ft 435 kts 46°
2026-05-07 00:07 35.08680 -116.33332 38579 ft 435 kts 46°
2026-05-07 00:08 35.12746 -116.27858 38742 ft 435 kts 46°
2026-05-07 00:08 35.16804 -116.22388 38830 ft 436 kts 46°
2026-05-07 00:09 35.20871 -116.16894 38969 ft 437 kts 46°
2026-05-07 00:09 35.24965 -116.11356 39087 ft 438 kts 46°
2026-05-07 00:10 35.29036 -116.05840 39234 ft 439 kts 46°
2026-05-07 00:10 35.33117 -116.00301 39334 ft 440 kts 46°
2026-05-07 00:11 35.37224 -115.94718 39446 ft 440 kts 46°
2026-05-07 00:11 35.41321 -115.89139 39561 ft 441 kts 46°
2026-05-07 00:12 35.45424 -115.83544 39662 ft 442 kts 46°
2026-05-07 00:12 35.49532 -115.77931 39777 ft 442 kts 46°
2026-05-07 00:13 35.53629 -115.72325 39901 ft 443 kts 46°
2026-05-07 00:13 35.57743 -115.66685 39986 ft 443 kts 46°
2026-05-07 00:14 35.61870 -115.61019 40077 ft 444 kts 46°
2026-05-07 00:14 35.65970 -115.55381 40163 ft 445 kts 46°
2026-05-07 00:15 35.70095 -115.49701 40247 ft 446 kts 46°
2026-05-07 00:15 35.74231 -115.43998 40315 ft 447 kts 46°
2026-05-07 00:16 35.78357 -115.38287 40369 ft 448 kts 46°
2026-05-07 00:16 35.82495 -115.32555 40425 ft 448 kts 46°
2026-05-07 00:17 35.86634 -115.26812 40488 ft 448 kts 46°
2026-05-07 00:17 35.90769 -115.21066 40555 ft 449 kts 46°
2026-05-07 00:18 35.94896 -115.15320 40621 ft 449 kts 46°
2026-05-07 00:18 35.99051 -115.09526 40692 ft 450 kts 46°
2026-05-07 00:19 36.03182 -115.03756 40757 ft 450 kts 46°
2026-05-07 00:19 36.07333 -114.97948 40785 ft 450 kts 46°
2026-05-07 00:20 36.11472 -114.92146 40773 ft 451 kts 46°
2026-05-07 00:20 36.15615 -114.86329 40817 ft 451 kts 46°
2026-05-07 00:21 36.19769 -114.80524 40857 ft 451 kts 45°
2026-05-07 00:21 36.24129 -114.74968 40878 ft 450 kts 43°
2026-05-07 00:22 36.28564 -114.69479 40905 ft 451 kts 43°
2026-05-07 00:22 36.32966 -114.63951 40887 ft 452 kts 44°
2026-05-07 00:23 36.37366 -114.58356 40884 ft 453 kts 44°
2026-05-07 00:23 36.41674 -114.52851 40882 ft 454 kts 44°
2026-05-07 00:24 36.46069 -114.47228 40884 ft 456 kts 44°
2026-05-07 00:24 36.50480 -114.41579 40887 ft 457 kts 44°
2026-05-07 00:25 36.54915 -114.35891 40893 ft 457 kts 44°
2026-05-07 00:25 36.59337 -114.30209 40895 ft 457 kts 44°
2026-05-07 00:26 36.63772 -114.24499 40900 ft 457 kts 44°
2026-05-07 00:26 36.68192 -114.18800 40908 ft 457 kts 44°
2026-05-07 00:27 36.72602 -114.13103 40912 ft 458 kts 44°
2026-05-07 00:27 36.77017 -114.07390 40917 ft 458 kts 44°
2026-05-07 00:28 36.81428 -114.01672 40923 ft 458 kts 44°
2026-05-07 00:28 36.85831 -113.95955 40931 ft 458 kts 44°
2026-05-07 00:29 36.90244 -113.90214 40946 ft 458 kts 44°
2026-05-07 00:30 36.99046 -113.78732 40982 ft 458 kts 44°
2026-05-07 00:30 37.03431 -113.72887 40995 ft 460 kts 48°
2026-05-07 00:31 37.06917 -113.66179 41009 ft 464 kts 58°
2026-05-07 00:31 37.09952 -113.59031 41018 ft 465 kts 59°
2026-05-07 00:32 37.12918 -113.51838 41018 ft 466 kts 59°
2026-05-07 00:32 37.15897 -113.44625 41009 ft 466 kts 59°
2026-05-07 00:33 37.18882 -113.37420 41007 ft 466 kts 59°
2026-05-07 00:33 37.21883 -113.30175 40998 ft 466 kts 59°
2026-05-07 00:34 37.24870 -113.22951 40994 ft 467 kts 59°
2026-05-07 00:34 37.27840 -113.15751 41009 ft 467 kts 59°
2026-05-07 00:35 37.30824 -113.08507 41002 ft 467 kts 59°
2026-05-07 00:35 37.33799 -113.01262 41007 ft 467 kts 59°
2026-05-07 00:36 37.36770 -112.94001 41017 ft 467 kts 59°
2026-05-07 00:36 37.39736 -112.86743 41024 ft 466 kts 59°
2026-05-07 00:37 37.42694 -112.79494 41024 ft 466 kts 59°
2026-05-07 00:37 37.45646 -112.72242 41023 ft 467 kts 59°
2026-05-07 00:38 37.48598 -112.64966 41026 ft 467 kts 59°
2026-05-07 00:38 37.51550 -112.57682 41019 ft 467 kts 59°
2026-05-07 00:39 37.54494 -112.50403 41042 ft 467 kts 59°
2026-05-07 00:39 37.57447 -112.43081 41088 ft 467 kts 59°
2026-05-07 00:40 37.60383 -112.35781 41134 ft 467 kts 59°
2026-05-07 00:40 37.63392 -112.28563 41184 ft 465 kts 54°
2026-05-07 00:41 37.67157 -112.21976 41222 ft 462 kts 49°
2026-05-07 00:41 37.71094 -112.15551 41220 ft 462 kts 49°
2026-05-07 00:42 37.75034 -112.09165 41222 ft 462 kts 49°
2026-05-07 00:42 37.78978 -112.02736 41193 ft 463 kts 49°
2026-05-07 00:43 37.82910 -111.96291 41143 ft 463 kts 49°
2026-05-07 00:43 37.86837 -111.89837 41095 ft 463 kts 49°
2026-05-07 00:44 37.90758 -111.83382 41051 ft 463 kts 49°
2026-05-07 00:44 37.94662 -111.76946 41011 ft 464 kts 49°
2026-05-07 00:45 37.98601 -111.70436 41032 ft 464 kts 49°
2026-05-07 00:45 38.02521 -111.63946 41019 ft 464 kts 49°
2026-05-07 00:46 38.06415 -111.57483 41029 ft 464 kts 49°
2026-05-07 00:46 38.10327 -111.50978 41022 ft 464 kts 49°
2026-05-07 00:47 38.14256 -111.44434 41019 ft 464 kts 49°
2026-05-07 00:47 38.18162 -111.37916 41024 ft 465 kts 49°
2026-05-07 00:48 38.22073 -111.31375 41013 ft 465 kts 49°
2026-05-07 00:48 38.26002 -111.24792 41004 ft 465 kts 49°
2026-05-07 00:49 38.29884 -111.18273 41005 ft 465 kts 49°
2026-05-07 00:49 38.33797 -111.11688 41012 ft 465 kts 49°
2026-05-07 00:50 38.37704 -111.05101 41046 ft 465 kts 49°
2026-05-07 00:50 38.41582 -110.98551 41070 ft 465 kts 49°
2026-05-07 00:51 38.45482 -110.91950 41104 ft 466 kts 49°
2026-05-07 00:51 38.49377 -110.85342 41119 ft 466 kts 49°
2026-05-07 00:52 38.53287 -110.78698 41123 ft 466 kts 49°
2026-05-07 00:52 38.57173 -110.72079 41114 ft 466 kts 49°
2026-05-07 00:53 38.61053 -110.65457 41096 ft 467 kts 49°
2026-05-07 00:53 38.64951 -110.58792 41069 ft 467 kts 49°
2026-05-07 00:54 38.68826 -110.52152 41044 ft 468 kts 49°
2026-05-07 00:54 38.72711 -110.45483 41016 ft 468 kts 49°
2026-05-07 00:55 38.76590 -110.38806 41019 ft 468 kts 49°
2026-05-07 00:55 38.80470 -110.32117 41019 ft 468 kts 49°
2026-05-07 00:56 38.84370 -110.25372 41024 ft 469 kts 50°
2026-05-07 00:56 38.88119 -110.18552 41026 ft 470 kts 51°
2026-05-07 00:57 38.91189 -110.12812 41039 ft 470 kts 51°
2026-05-07 00:57 38.94908 -110.05888 41054 ft 470 kts 51°
2026-05-07 00:58 38.98631 -109.98993 41055 ft 470 kts 51°
2026-05-07 00:58 39.02368 -109.92080 41068 ft 470 kts 51°
2026-05-07 00:59 39.07956 -109.81705 41073 ft 471 kts 51°
2026-05-07 01:00 39.11690 -109.74755 41071 ft 471 kts 51°
2026-05-07 01:00 39.15398 -109.67843 41083 ft 471 kts 51°
2026-05-07 01:01 39.19134 -109.60861 41089 ft 472 kts 51°
2026-05-07 01:01 39.22826 -109.53943 41086 ft 471 kts 51°
2026-05-07 01:02 39.26560 -109.46935 41089 ft 472 kts 51°
2026-05-07 01:02 39.30263 -109.39963 41088 ft 472 kts 51°
2026-05-07 01:03 39.33975 -109.32962 41086 ft 472 kts 51°
2026-05-07 01:03 39.37663 -109.25988 41099 ft 472 kts 51°
2026-05-07 01:04 39.41370 -109.18972 41094 ft 473 kts 51°
2026-05-07 01:04 39.45073 -109.11943 41092 ft 473 kts 51°
2026-05-07 01:05 39.48774 -109.04906 41095 ft 473 kts 51°
2026-05-07 01:05 39.52463 -108.97868 41097 ft 473 kts 51°
2026-05-07 01:06 39.56164 -108.90789 41105 ft 474 kts 51°
2026-05-07 01:06 39.59847 -108.83736 41104 ft 474 kts 51°
2026-05-07 01:07 39.63535 -108.76659 41107 ft 473 kts 51°
2026-05-07 01:07 39.67208 -108.69593 41110 ft 473 kts 51°
2026-05-07 01:08 39.70896 -108.62482 41112 ft 473 kts 51°
2026-05-07 01:08 39.74545 -108.55435 41116 ft 473 kts 51°
2026-05-07 01:09 39.78207 -108.48341 41118 ft 472 kts 51°
2026-05-07 01:09 39.81853 -108.41261 41117 ft 472 kts 51°
2026-05-07 01:10 39.85510 -108.34146 41115 ft 473 kts 51°
2026-05-07 01:10 39.89164 -108.27023 41125 ft 473 kts 51°
2026-05-07 01:11 39.92807 -108.19904 41143 ft 474 kts 51°
2026-05-07 01:11 39.96466 -108.12737 41164 ft 474 kts 51°
2026-05-07 01:12 40.00116 -108.05572 41190 ft 475 kts 51°
2026-05-07 01:12 40.03759 -107.98404 41204 ft 475 kts 52°
2026-05-07 01:13 40.07008 -107.90844 41213 ft 484 kts 64°
2026-05-07 01:13 40.09149 -107.82508 41197 ft 488 kts 68°
2026-05-07 01:14 40.11096 -107.74014 41194 ft 490 kts 69°
2026-05-07 01:14 40.13031 -107.65465 41184 ft 490 kts 69°
2026-05-07 01:15 40.14979 -107.56930 41172 ft 490 kts 69°
2026-05-07 01:15 40.16938 -107.48379 41165 ft 490 kts 69°
2026-05-07 01:16 40.18878 -107.39891 41170 ft 491 kts 69°
2026-05-07 01:16 40.20833 -107.31300 41178 ft 491 kts 69°
2026-05-07 01:17 40.22775 -107.22725 41179 ft 492 kts 69°
2026-05-07 01:17 40.24714 -107.14129 41184 ft 492 kts 69°
2026-05-07 01:18 40.26636 -107.05583 41183 ft 492 kts 69°
2026-05-07 01:18 40.28563 -106.96976 41172 ft 492 kts 69°
2026-05-07 01:19 40.30479 -106.88392 41170 ft 492 kts 69°
2026-05-07 01:19 40.32397 -106.79765 41170 ft 493 kts 69°
2026-05-07 01:20 40.34303 -106.71156 41169 ft 493 kts 69°
2026-05-07 01:20 40.36216 -106.62479 41168 ft 493 kts 69°
2026-05-07 01:21 40.38118 -106.53820 41169 ft 494 kts 69°
2026-05-07 01:21 40.40006 -106.45188 41156 ft 495 kts 70°
2026-05-07 01:22 40.41899 -106.36500 41156 ft 495 kts 70°
2026-05-07 01:22 40.43789 -106.27786 41156 ft 495 kts 70°
2026-05-07 01:23 40.45662 -106.19117 41147 ft 495 kts 70°
2026-05-07 01:23 40.47539 -106.10402 41155 ft 496 kts 70°
2026-05-07 01:24 40.49403 -106.01706 41157 ft 497 kts 70°
2026-05-07 01:24 40.51282 -105.92914 41150 ft 498 kts 70°
2026-05-07 01:25 40.53149 -105.84162 41150 ft 499 kts 70°
2026-05-07 01:25 40.54997 -105.75411 41144 ft 500 kts 70°
2026-05-07 01:26 40.56846 -105.66606 41141 ft 501 kts 70°
2026-05-07 01:26 40.58697 -105.57773 41139 ft 501 kts 70°
2026-05-07 01:27 40.60543 -105.48930 41135 ft 501 kts 70°
2026-05-07 01:27 40.62378 -105.40101 41140 ft 501 kts 70°
2026-05-07 01:28 40.64218 -105.31206 41143 ft 502 kts 70°
2026-05-07 01:28 40.66040 -105.22373 41143 ft 503 kts 71°
2026-05-07 01:29 40.67867 -105.13480 41146 ft 503 kts 71°
2026-05-07 01:29 40.69691 -105.04555 41153 ft 504 kts 71°
2026-05-07 01:30 40.71505 -104.95646 41160 ft 504 kts 71°
2026-05-07 01:30 40.73314 -104.86721 41166 ft 504 kts 71°
2026-05-07 01:31 40.75115 -104.77794 41183 ft 505 kts 71°
2026-05-07 01:31 40.76917 -104.68825 41195 ft 505 kts 71°
2026-05-07 01:32 40.78711 -104.59854 41204 ft 506 kts 71°
2026-05-07 01:32 40.80496 -104.50894 41214 ft 506 kts 71°
2026-05-07 01:33 40.82275 -104.41919 41221 ft 507 kts 71°
2026-05-07 01:33 40.84057 -104.32891 41230 ft 507 kts 71°
2026-05-07 01:34 40.85834 -104.23846 41236 ft 508 kts 72°
2026-05-07 01:34 40.87601 -104.14809 41236 ft 508 kts 72°
2026-05-07 01:35 40.89351 -104.05823 41244 ft 509 kts 72°
2026-05-07 01:35 40.91108 -103.96760 41202 ft 510 kts 72°
2026-05-07 01:36 40.92862 -103.87670 41159 ft 510 kts 72°